| time (UTC) | temp C | wind direction | speed KPH | gust KPH | rain 1hr cm | rain 24hr cm | rain mn cm | humidity % | barometer mb |
| 20260504110503 | 6 | 188 | 0.0 | 3.2 | 0.00 | 0.00 | 0.00 | 82 | 1008.9 |
| 20260504100507 | 7 | 167 | 1.6 | 3.2 | 0.00 | 0.00 | 0.00 | 77 | 1009.2 |
| 20260504081525 | 8 | 153 | 1.6 | 6.4 | 0.00 | 0.00 | 0.00 | 72 | 1010.1 |
| 20260504081011 | 8 | 147 | 3.2 | 8.0 | 0.00 | 0.00 | 0.00 | 72 | 1010.0 |
| 20260504080510 | 8 | 184 | 3.2 | 8.0 | 0.00 | 0.00 | 0.00 | 72 | 1009.9 |
| 20260504050505 | 10 | 155 | 3.2 | 9.7 | 0.00 | 0.00 | 0.00 | 68 | 1011.9 |
| 20260504050023 | 10 | 177 | 3.2 | 11.3 | 0.00 | 0.00 | 0.00 | 68 | 1011.8 |
| 20260504045507 | 10 | 185 | 3.2 | 11.3 | 0.00 | 0.00 | 0.00 | 68 | 1011.9 |
| 20260504045008 | 10 | 165 | 3.2 | 11.3 | 0.00 | 0.00 | 0.00 | 68 | 1011.9 |
| 20260504044518 | 10 | 138 | 3.2 | 9.7 | 0.00 | 0.00 | 0.00 | 68 | 1011.9 |
| 20260504044006 | 10 | 160 | 3.2 | 9.7 | 0.00 | 0.00 | 0.00 | 69 | 1012.0 |
| 20260504043504 | 10 | 163 | 1.6 | 8.0 | 0.00 | 0.00 | 0.00 | 69 | 1012.0 |
| 20260504043012 | 10 | 195 | 3.2 | 9.7 | 0.00 | 0.00 | 0.00 | 69 | 1012.0 |
| 20260504042506 | 10 | 161 | 1.6 | 11.3 | 0.00 | 0.00 | 0.00 | 69 | 1012.1 |
| 20260504042006 | 10 | 175 | 1.6 | 11.3 | 0.00 | 0.00 | 0.00 | 70 | 1012.1 |
| 20260504041516 | 10 | 140 | 4.8 | 12.9 | 0.00 | 0.00 | 0.00 | 70 | 1012.1 |
| 20260504041006 | 10 | 136 | 4.8 | 12.9 | 0.00 | 0.00 | 0.00 | 70 | 1012.2 |
| 20260504040508 | 10 | 160 | 3.2 | 11.3 | 0.00 | 0.00 | 0.00 | 71 | 1012.2 |
| 20260504040022 | 10 | 134 | 4.8 | 11.3 | 0.00 | 0.00 | 0.00 | 71 | 1012.2 |
| 20260504035507 | 10 | 152 | 6.4 | 12.9 | 0.00 | 0.00 | 0.00 | 71 | 1012.3 |
| 20260504035007 | 9 | 136 | 4.8 | 12.9 | 0.00 | 0.00 | 0.00 | 71 | 1012.4 |
| 20260504034537 | 9 | 134 | 3.2 | 8.0 | 0.00 | 0.00 | 0.00 | 72 | 1012.4 |
| 20260504034007 | 9 | 162 | 1.6 | 8.0 | 0.00 | 0.00 | 0.00 | 73 | 1012.5 |
| 20260504033503 | 9 | 190 | 1.6 | 6.4 | 0.00 | 0.00 | 0.00 | 73 | 1012.6 |
| 20260504033009 | 9 | 178 | 1.6 | 8.0 | 0.00 | 0.00 | 0.00 | 74 | 1012.6 |
| 20260504032504 | 9 | 138 | 1.6 | 8.0 | 0.00 | 0.00 | 0.00 | 75 | 1012.6 |
| 20260504032004 | 8 | 146 | 3.2 | 4.8 | 0.00 | 0.00 | 0.00 | 76 | 1012.6 |
| 20260504031517 | 8 | 150 | 1.6 | 6.4 | 0.00 | 0.00 | 0.00 | 76 | 1012.7 |
| 20260504031004 | 8 | 146 | 3.2 | 6.4 | 0.00 | 0.00 | 0.00 | 77 | 1012.7 |
| 20260504030504 | 8 | 139 | 1.6 | 4.8 | 0.00 | 0.00 | 0.00 | 77 | 1012.7 |
| 20260504030037 | 8 | 213 | 0.0 | 4.8 | 0.00 | 0.00 | 0.00 | 77 | 1012.8 |
| 20260504025512 | 8 | 167 | 1.6 | 8.0 | 0.00 | 0.00 | 0.00 | 77 | 1012.8 |
| 20260504025009 | 8 | 148 | 0.0 | 8.0 | 0.00 | 0.00 | 0.00 | 77 | 1012.9 |
| 20260504024526 | 8 | 143 | 1.6 | 6.4 | 0.00 | 0.00 | 0.00 | 76 | 1012.9 |
| 20260504024012 | 8 | 151 | 3.2 | 6.4 | 0.00 | 0.00 | 0.00 | 76 | 1012.9 |
| 20260504023509 | 8 | 165 | 3.2 | 4.8 | 0.00 | 0.00 | 0.00 | 76 | 1012.9 |
| 20260504023028 | 8 | 175 | 1.6 | 6.4 | 0.00 | 0.00 | 0.00 | 76 | 1012.9 |
| 20260504022509 | 8 | 141 | 3.2 | 9.7 | 0.00 | 0.00 | 0.00 | 75 | 1013.0 |
| 20260504022005 | 8 | 150 | 1.6 | 11.3 | 0.00 | 0.00 | 0.00 | 76 | 1012.9 |
| 20260504021510 | 8 | 74 | 3.2 | 11.3 | 0.00 | 0.00 | 0.00 | 76 | 1013.0 |
| 20260504021004 | 8 | 143 | 1.6 | 6.4 | 0.00 | 0.00 | 0.00 | 76 | 1013.1 |
| 20260504020508 | 8 | 188 | 1.6 | 8.0 | 0.00 | 0.00 | 0.00 | 76 | 1013.2 |
| 20260504020017 | 8 | 161 | 4.8 | 9.7 | 0.00 | 0.00 | 0.00 | 75 | 1013.2 |
| 20260504015504 | 8 | 188 | 0.0 | 9.7 | 0.00 | 0.00 | 0.00 | 74 | 1013.1 |
| 20260504015004 | 8 | 266 | 4.8 | 14.5 | 0.00 | 0.00 | 0.00 | 74 | 1013.1 |
| 20260504014534 | 8 | 127 | 6.4 | 12.9 | 0.00 | 0.00 | 0.00 | 74 | 1012.9 |
| 20260504014012 | 8 | 143 | 6.4 | 12.9 | 0.00 | 0.00 | 0.00 | 75 | 1012.9 |
| 20260504013508 | 8 | 136 | 3.2 | 9.7 | 0.00 | 0.00 | 0.00 | 75 | 1013.0 |
| 20260504013027 | 8 | 121 | 3.2 | 9.7 | 0.00 | 0.00 | 0.00 | 75 | 1013.1 |
| 20260504012508 | 8 | 143 | 3.2 | 9.7 | 0.00 | 0.00 | 0.00 | 76 | 1013.2 |
| 20260504012009 | 8 | 127 | 1.6 | 8.0 | 0.00 | 0.00 | 0.00 | 76 | 1013.3 |
| 20260504011527 | 8 | 126 | 4.8 | 9.7 | 0.00 | 0.00 | 0.00 | 76 | 1013.2 |
| 20260504011009 | 8 | 142 | 3.2 | 9.7 | 0.00 | 0.00 | 0.00 | 76 | 1013.2 |
| 20260504010504 | 8 | 135 | 1.6 | 11.3 | 0.00 | 0.00 | 0.00 | 75 | 1013.2 |
| 20260504010020 | 8 | 154 | 3.2 | 11.3 | 0.00 | 0.00 | 0.00 | 75 | 1013.1 |
| 20260504005505 | 8 | 179 | 0.0 | 6.4 | 0.00 | 0.00 | 0.00 | 75 | 1013.1 |
| 20260504005005 | 8 | 104 | 3.2 | 6.4 | 0.00 | 0.00 | 0.00 | 75 | 1013.0 |
| 20260504004518 | 8 | 140 | 1.6 | 6.4 | 0.00 | 0.00 | 0.00 | 75 | 1013.0 |
| 20260504004004 | 8 | 161 | 0.0 | 4.8 | 0.00 | 0.00 | 0.00 | 75 | 1013.0 |
| 20260504003508 | 8 | 144 | 1.6 | 4.8 | 0.00 | 0.00 | 0.00 | 75 | 1013.1 |
| 20260504003030 | 8 | 123 | 1.6 | 4.8 | 0.00 | 0.00 | 0.00 | 75 | 1013.0 |
| 20260504002508 | 8 | 134 | 3.2 | 4.8 | 0.00 | 0.00 | 0.00 | 75 | 1013.1 |
| 20260504002008 | 8 | 144 | 1.6 | 4.8 | 0.00 | 0.00 | 0.00 | 75 | 1013.0 |
| 20260504001526 | 8 | 142 | 3.2 | 4.8 | 0.00 | 0.00 | 0.00 | 76 | 1013.0 |
| 20260504001009 | 8 | 113 | 1.6 | 6.4 | 0.00 | 0.00 | 0.00 | 76 | 1013.1 |
| 20260504000507 | 8 | 133 | 1.6 | 6.4 | 0.00 | 0.00 | 0.00 | 76 | 1013.2 |
| 20260504000030 | 8 | 150 | 3.2 | 6.4 | 0.00 | 0.00 | 0.00 | 77 | 1013.3 |
| 20260503235504 | 8 | 161 | 4.8 | 9.7 | 0.00 | 0.00 | 0.00 | 77 | 1013.3 |
| 20260503235008 | 8 | 129 | 4.8 | 8.0 | 0.00 | 0.00 | 0.00 | 76 | 1013.4 |
| 20260503234529 | 8 | 112 | 1.6 | 6.4 | 0.00 | 0.00 | 0.00 | 76 | 1013.5 |
| 20260503234007 | 8 | 121 | 3.2 | 4.8 | 0.00 | 0.00 | 0.00 | 77 | 1013.6 |
| 20260503233507 | 8 | 141 | 1.6 | 6.4 | 0.00 | 0.00 | 0.00 | 76 | 1013.6 |
| 20260503233021 | 8 | 146 | 1.6 | 12.9 | 0.00 | 0.00 | 0.00 | 76 | 1013.7 |
| 20260503232511 | 8 | 205 | 3.2 | 16.1 | 0.00 | 0.00 | 0.00 | 75 | 1013.9 |
| 20260503232010 | 9 | 173 | 6.4 | 17.7 | 0.00 | 0.00 | 0.00 | 74 | 1014.2 |
| 20260503231527 | 9 | 165 | 4.8 | 27.4 | 0.00 | 0.00 | 0.00 | 73 | 1014.3 |
| 20260503231014 | 10 | 196 | 12.9 | 32.2 | 0.00 | 0.00 | 0.00 | 70 | 1014.5 |
| 20260503230511 | 10 | 196 | 12.9 | 32.2 | 0.00 | 0.00 | 0.00 | 69 | 1014.5 |
| 20260503230030 | 10 | 173 | 9.7 | 27.4 | 0.00 | 0.00 | 0.00 | 67 | 1014.2 |
| 20260503225510 | 10 | 165 | 11.3 | 32.2 | 0.00 | 0.00 | 0.00 | 65 | 1014.3 |
| 20260503225010 | 10 | 213 | 9.7 | 32.2 | 0.00 | 0.00 | 0.00 | 63 | 1014.2 |
| 20260503224529 | 11 | 254 | 9.7 | 32.2 | 0.00 | 0.00 | 0.00 | 61 | 1014.1 |
| 20260503224004 | 11 | 149 | 8.0 | 32.2 | 0.00 | 0.00 | 0.00 | 59 | 1014.2 |
| 20260503223506 | 12 | 212 | 9.7 | 27.4 | 0.00 | 0.00 | 0.00 | 55 | 1014.0 |
| 20260503223024 | 12 | 311 | 9.7 | 30.6 | 0.00 | 0.00 | 0.00 | 51 | 1014.1 |
| 20260503222508 | 12 | 288 | 12.9 | 38.6 | 0.00 | 0.00 | 0.00 | 48 | 1014.0 |
| 20260503222007 | 13 | 178 | 8.0 | 38.6 | 0.00 | 0.00 | 0.00 | 46 | 1013.9 |
| 20260503221524 | 13 | 171 | 11.3 | 25.7 | 0.00 | 0.00 | 0.00 | 41 | 1013.8 |
| 20260503221012 | 14 | 202 | 8.0 | 19.3 | 0.00 | 0.00 | 0.00 | 41 | 1013.7 |
| 20260503220511 | 14 | 136 | 6.4 | 27.4 | 0.00 | 0.00 | 0.00 | 42 | 1013.6 |
| 20260503220007 | 14 | 206 | 8.0 | 27.4 | 0.00 | 0.00 | 0.00 | 42 | 1013.5 |
| 20260503215507 | 14 | 188 | 8.0 | 29.0 | 0.00 | 0.00 | 0.00 | 40 | 1013.5 |
| 20260503215005 | 14 | 172 | 9.7 | 29.0 | 0.00 | 0.00 | 0.00 | 39 | 1013.6 |
| 20260503214514 | 14 | 154 | 6.4 | 25.7 | 0.00 | 0.00 | 0.00 | 41 | 1013.7 |
| 20260503214004 | 14 | 170 | 9.7 | 25.7 | 0.00 | 0.00 | 0.00 | 39 | 1013.6 |
| 20260503213505 | 14 | 184 | 11.3 | 27.4 | 0.00 | 0.00 | 0.00 | 40 | 1013.7 |
| 20260503213018 | 15 | 194 | 6.4 | 27.4 | 0.00 | 0.00 | 0.00 | 40 | 1013.7 |
| 20260503212507 | 15 | 285 | 8.0 | 20.9 | 0.00 | 0.00 | 0.00 | 40 | 1013.7 |
| 20260503212008 | 15 | 210 | 8.0 | 20.9 | 0.00 | 0.00 | 0.00 | 39 | 1013.7 |
| 20260503211524 | 15 | 318 | 4.8 | 29.0 | 0.00 | 0.00 | 0.00 | 40 | 1013.8 |
| 20260503211000 | 15 | 175 | 8.0 | 29.0 | 0.00 | 0.00 | 0.00 | 41 | 1013.9 |
| 20260503210504 | 15 | 193 | 11.3 | 30.6 | 0.00 | 0.00 | 0.00 | 38 | 1013.8 |
| 20260503210007 | 15 | 149 | 9.7 | 30.6 | 0.00 | 0.00 | 0.00 | 38 | 1013.9 |
| 20260503205503 | 15 | 165 | 6.4 | 27.4 | 0.00 | 0.00 | 0.00 | 39 | 1014.0 |
| 20260503205005 | 15 | 209 | 4.8 | 25.7 | 0.00 | 0.00 | 0.00 | 38 | 1013.9 |
| 20260503204512 | 15 | 196 | 8.0 | 25.7 | 0.00 | 0.00 | 0.00 | 38 | 1014.1 |
| 20260503204008 | 15 | 143 | 8.0 | 16.1 | 0.00 | 0.00 | 0.00 | 40 | 1014.1 |
| 20260503203508 | 15 | 250 | 4.8 | 22.5 | 0.00 | 0.00 | 0.00 | 40 | 1014.2 |
| 20260503203021 | 15 | 191 | 9.7 | 25.7 | 0.00 | 0.00 | 0.00 | 38 | 1014.2 |
| 20260503202505 | 15 | 148 | 11.3 | 25.7 | 0.00 | 0.00 | 0.00 | 39 | 1014.3 |
| 20260503202009 | 15 | 97 | 11.3 | 22.5 | 0.00 | 0.00 | 0.00 | 39 | 1014.3 |
| 20260503201522 | 15 | 140 | 8.0 | 22.5 | 0.00 | 0.00 | 0.00 | 37 | 1014.3 |
| 20260503201008 | 15 | 223 | 8.0 | 20.9 | 0.00 | 0.00 | 0.00 | 39 | 1014.3 |
| 20260503200508 | 15 | 213 | 11.3 | 20.9 | 0.00 | 0.00 | 0.00 | 37 | 1014.4 |
| 20260503200004 | 15 | 155 | 4.8 | 30.6 | 0.00 | 0.00 | 0.00 | 37 | 1014.4 |
| 20260503195503 | 15 | 184 | 9.7 | 30.6 | 0.00 | 0.00 | 0.00 | 37 | 1014.5 |
| 20260503195005 | 15 | 126 | 11.3 | 30.6 | 0.00 | 0.00 | 0.00 | 40 | 1014.4 |
| 20260503194510 | 15 | 197 | 6.4 | 17.7 | 0.00 | 0.00 | 0.00 | 39 | 1014.5 |
| 20260503194004 | 15 | 111 | 6.4 | 24.1 | 0.00 | 0.00 | 0.00 | 39 | 1014.6 |
| 20260503193505 | 15 | 195 | 9.7 | 24.1 | 0.00 | 0.00 | 0.00 | 37 | 1014.7 |
| 20260503193022 | 15 | 211 | 9.7 | 20.9 | 0.00 | 0.00 | 0.00 | 40 | 1014.7 |
| 20260503192506 | 15 | 202 | 8.0 | 22.5 | 0.00 | 0.00 | 0.00 | 39 | 1014.8 |
| 20260503192010 | 15 | 180 | 11.3 | 29.0 | 0.00 | 0.00 | 0.00 | 39 | 1015.0 |
| 20260503191520 | 15 | 244 | 8.0 | 29.0 | 0.00 | 0.00 | 0.00 | 40 | 1015.2 |
| 20260503191012 | 15 | 148 | 9.7 | 24.1 | 0.00 | 0.00 | 0.00 | 39 | 1015.3 |
| 20260503190508 | 15 | 284 | 6.4 | 22.5 | 0.00 | 0.00 | 0.00 | 40 | 1015.5 |
| 20260503190027 | 15 | 187 | 4.8 | 24.1 | 0.00 | 0.00 | 0.00 | 40 | 1015.5 |
| 20260503185508 | 15 | 238 | 8.0 | 24.1 | 0.00 | 0.00 | 0.00 | 39 | 1015.6 |
| 20260503185007 | 15 | 198 | 11.3 | 29.0 | 0.00 | 0.00 | 0.00 | 36 | 1015.6 |
| 20260503184513 | 15 | 169 | 11.3 | 29.0 | 0.00 | 0.00 | 0.00 | 39 | 1015.7 |
| 20260503184008 | 15 | 154 | 8.0 | 24.1 | 0.00 | 0.00 | 0.00 | 41 | 1015.7 |
| 20260503183505 | 15 | 164 | 9.7 | 24.1 | 0.00 | 0.00 | 0.00 | 39 | 1015.8 |
| 20260503183012 | 15 | 134 | 11.3 | 22.5 | 0.00 | 0.00 | 0.00 | 38 | 1015.9 |
| 20260503182505 | 15 | 131 | 11.3 | 22.5 | 0.00 | 0.00 | 0.00 | 38 | 1015.9 |
| 20260503182005 | 15 | 176 | 8.0 | 22.5 | 0.00 | 0.00 | 0.00 | 43 | 1016.0 |
| 20260503181516 | 15 | 148 | 9.7 | 20.9 | 0.00 | 0.00 | 0.00 | 39 | 1016.1 |
| 20260503181005 | 15 | 236 | 4.8 | 20.9 | 0.00 | 0.00 | 0.00 | 41 | 1016.1 |
| 20260503180508 | 15 | 304 | 8.0 | 20.9 | 0.00 | 0.00 | 0.00 | 43 | 1016.2 |
| 20260503180024 | 15 | 286 | 8.0 | 17.7 | 0.00 | 0.00 | 0.00 | 43 | 1016.2 |
| 20260503175507 | 15 | 172 | 4.8 | 19.3 | 0.00 | 0.00 | 0.00 | 41 | 1016.3 |
| 20260503175010 | 15 | 166 | 9.7 | 19.3 | 0.00 | 0.00 | 0.00 | 40 | 1016.3 |
| 20260503174525 | 15 | 165 | 6.4 | 24.1 | 0.00 | 0.00 | 0.00 | 44 | 1016.4 |
| 20260503174012 | 15 | 162 | 11.3 | 24.1 | 0.00 | 0.00 | 0.00 | 38 | 1016.5 |
| 20260503173504 | 15 | 180 | 6.4 | 24.1 | 0.00 | 0.00 | 0.00 | 42 | 1016.6 |
| 20260503173009 | 15 | 181 | 4.8 | 24.1 | 0.00 | 0.00 | 0.00 | 43 | 1016.5 |
| 20260503172504 | 15 | 275 | 6.4 | 17.7 | 0.00 | 0.00 | 0.00 | 42 | 1016.6 |
| 20260503172004 | 15 | 136 | 3.2 | 22.5 | 0.00 | 0.00 | 0.00 | 41 | 1016.6 |
| 20260503171516 | 15 | 205 | 8.0 | 24.1 | 0.00 | 0.00 | 0.00 | 39 | 1016.6 |
| 20260503171004 | 15 | 273 | 8.0 | 33.8 | 0.00 | 0.00 | 0.00 | 41 | 1016.8 |
| 20260503170507 | 15 | 162 | 4.8 | 33.8 | 0.00 | 0.00 | 0.00 | 47 | 1016.9 |
| 20260503131008 | 8 | 166 | 3.2 | 19.3 | 0.00 | 0.00 | 0.00 | 63 | 1018.3 |
| 20260503130509 | 7 | 290 | 6.4 | 19.3 | 0.00 | 0.00 | 0.00 | 67 | 1018.3 |